Volver al catálogo

STARLINK-31187

ActivoComunicacionesVLEO
NORAD 58790·PAYLOAD·🇺🇸 United States

Lanzado Jan 15, 2024 desde Cape Canaveral Space Force Station

Loading…

Próximos Pases (próximas 24 horas)

TLE

ActualizadoSource: CelesTrak SupGP

Época: Sep 15, 2026, 02:54 UTC

1 58790C 24012D   26258.12131944 -.00010262  00000+0 -37173-3 0  2580
2 58790  42.9996 175.8024 0001358 276.5589  55.5510 15.27578890    10

Sigue STARLINK-31187 en tiempo real con AllMySat

Download on the App Store